Flag for Turkmenistan Weather past 2 weeks in Ashgabat, Turkmenistan

Now
79 °F

Passing clouds.


Feels Like: 78 °F
Forecast: 79 / 99 °F
Wind: 10 mph from Northwest

Location: Ashgabat

Current Time: Jul 23, 2014 at 6:55:22 AM

Latest Report: Jul 23, 2014 at 6:30 AM


Visibility: N/A

Pressure: 29.80 "Hg

Humidity: 23%

Dew point: 37 °F

Location of AshgabatLocation

Historic Weather in Ashgabat — Graph

°F

Ashgabat temperature yesterday

Maximum temperature yesterday: 100 °F (at 5:00 PM)
Minimum temperature yesterday: 82 °F (at 5:00 AM)
Average temperature yesterday: 91 °F

Past Weeks' High & Low Weather Summary

 TemperatureHumidityPressure
High108 °F (Jul 13, 5:00 PM)48% (Jul 10, 6:00 AM)29.92 "Hg (Jul 10, 6:00 AM)
Low68 °F (Jul 18, 6:00 AM)6% (Jul 8, 2:00 PM)29.50 "Hg (Jul 20, 2:00 AM)
Average92 °F20%29.71 "Hg
* Reported Jul 8 5:00 AM — Jul 23 5:00 AM, Ashgabat, Weather by CustomWeather, © 2014

Note: Actual official high and low records may vary slightly from our data, if they occured in-between our weather recording intervals... More about our weather records

Advertising

Ashgabat weather history for previous 24 hours

 ConditionsComfort  
Time TempWeatherWind HumidityBarometerVisibility
5:00 AM
Jul 23
79 °FPassing clouds.10 mph32%29.74 "HgN/A
10:00 PM
Jul 22
90 °FPassing clouds.13 mph41%29.68 "HgN/A
9:00 PM93 °FScattered clouds.8 mph30%29.68 "HgN/A
8:00 PM95 °FPassing clouds.10 mph28%29.65 "HgN/A
7:00 PM99 °FPassing clouds.10 mph24%29.65 "HgN/A
6:00 PM99 °FPassing clouds.8 mph22%29.65 "HgN/A
5:00 PM100 °FSunny.10 mph21%29.65 "HgN/A
4:00 PM99 °FSunny.13 mph24%29.65 "HgN/A
3:00 PM99 °FSunny.10 mph24%29.65 "HgN/A
2:00 PM97 °FSunny.10 mph25%29.68 "HgN/A
1:00 PM95 °FSunny.15 mph26%29.68 "HgN/A
12:00 PM95 °FSunny.15 mph23%29.68 "HgN/A
11:00 AM93 °FSunny.15 mph21%29.68 "HgN/A
10:00 AM90 °FPassing clouds.17 mph14%29.68 "HgN/A
9:00 AM86 °FScattered clouds.15 mph22%29.68 "HgN/A
8:00 AM84 °FScattered clouds.15 mph15%29.68 "HgN/A
7:00 AM82 °FBroken clouds.15 mph17%29.65 "HgN/A
6:00 AM82 °FPassing clouds.15 mph21%29.62 "HgN/A
Weather by CustomWeather, © 2014

See weather overviewHow to use our weather pages